Location: Waldport
(44.4270°N, 124.0680°W)
Time: 22:10:56
(UTC-08:00)

Amateur Radio Satellites - All Passes

Search period start: 21 February 2017 21:40
Search period end: 22 February 2017 21:40
Location: Waldport, 44.4270°N, 124.0680°W

Satellite Date Start Highest point End Downlink Frequencies (MHz)
Time Altitude Azimuth
RS-15 21 Feb 21:49:19 21:59:55 32° 343° (NNW) 22:10:37 29.354- 29.394
PRISM 21 Feb 21:50:21 21:54:25 74° 102° (ESE) 21:58:29 437.425
ESTCUBE 1 21 Feb 21:57:08 22:00:48 25° 66° (ENE) 22:04:29 437.505/2401.250
DELFI C3 21 Feb 21:57:17 22:00:36 25° 265° (W) 22:03:55 145.870
SO-50 21 Feb 21:58:35 21:59:18 10° 107° (ESE) 22:00:01 436.795
UNISAT 6 21 Feb 22:22:30 22:27:13 68° 102° (ESE) 22:31:53 437.425
TIGRISAT 21 Feb 22:24:04 22:28:46 66° 101° (ESE) 22:33:26 435.000
FO-29 21 Feb 22:38:39 22:46:12 51° 97° (E) 22:53:08 435.910
VELOX 1 21 Feb 22:40:01 22:43:30 24° 65° (ENE) 22:47:00 145.980
DX 1 21 Feb 22:46:24 22:48:29 13° 60° (ENE) 22:50:33 434.975-435.025
O/OREOS (USA 219) 21 Feb 22:50:38 22:54:09 23° 102° (ESE) 22:57:42 437.305
POLYITAN 1 21 Feb 22:53:14 22:55:15 13° 90° (E) 22:57:17 437.675
QB50P2 21 Feb 22:55:38 22:58:07 15° 91° (E) 23:00:35 145.880/145.840
NANOSAT C BR1 21 Feb 22:56:35 22:58:33 13° 90° (E) 23:00:31 145.865
50 SAT 21 Feb 23:04:08 23:06:59 23° 68° (ENE) 23:09:49 437.505
YUBILEINY 21 Feb 23:04:54 23:13:08 48° 272° (W) 23:21:18 435.215
UKube-1 21 Feb 23:06:01 23:08:31 15° 61° (ENE) 23:11:02 .
SPROUT 21 Feb 23:17:08 23:21:09 43° 71° (ENE) 23:25:12 437.525
PRISM 21 Feb 23:27:50 23:29:08 11° 300° (WNW) 23:30:27 437.425
AIST 2D 21 Feb 23:30:49 23:34:21 54° 99° (E) 23:37:50 435.315
ESTCUBE 1 21 Feb 23:33:17 23:37:27 36° 263° (W) 23:41:37 437.505/2401.250
SO-50 21 Feb 23:34:20 23:39:01 83° 123° (ESE) 23:43:39 436.795
PCSat 21 Feb 23:43:17 23:44:46 11° 27° (NNE) 23:46:15 145.827
BUGSAT 1 21 Feb 23:44:00 23:46:09 14° 90° (E) 23:48:18 437.445
UNISAT 6 22 Feb 00:00:36 00:03:22 16° 299° (WNW) 00:06:07 437.425
TIGRISAT 22 Feb 00:02:04 00:04:55 16° 299° (WNW) 00:07:46 435.000
DUCHIFAT 1 22 Feb 00:04:43 00:08:58 64° 102° (ESE) 00:13:11 145.980
RS-15 22 Feb 00:06:37 00:17:22 32° 18° (NNE) 00:27:56 29.354- 29.394
EO-79 22 Feb 00:10:51 00:15:10 88° 101° (E) 00:19:27 145.935-145.965
VELOX 1 22 Feb 00:15:45 00:19:47 36° 262° (W) 00:23:51 145.980
DX 1 22 Feb 00:19:48 00:24:07 70° 258° (WSW) 00:28:26 434.975-435.025
FO-29 22 Feb 00:23:55 00:30:56 38° 298° (WNW) 00:37:32 435.910
POLYITAN 1 22 Feb 00:27:11 00:31:27 62° 287° (WNW) 00:35:41 437.675
O/OREOS (USA 219) 22 Feb 00:29:09 00:33:19 38° 301° (WNW) 00:37:33 437.305
QB50P2 22 Feb 00:30:02 00:34:14 53° 288° (WNW) 00:38:24 145.880/145.840
NANOSAT C BR1 22 Feb 00:30:26 00:34:40 62° 287° (WNW) 00:38:52 145.865
50 SAT 22 Feb 00:37:15 00:40:03 22° 265° (W) 00:42:52 437.505
UKube-1 22 Feb 00:39:51 00:44:05 58° 258° (WSW) 00:48:21 .
Oscar 19 22 Feb 00:47:36 00:51:22 20° 92° (E) 00:55:06 437.125/150
ITUPSAT 1 22 Feb 00:48:55 00:51:40 15° 59° (ENE) 00:54:26 437.325
SPROUT 22 Feb 00:54:19 00:57:16 18° 268° (W) 01:00:14 437.525
BEESAT 22 Feb 00:57:32 01:00:48 19° 61° (ENE) 01:04:04 436.000
Gurwin Techsat 1B 22 Feb 01:02:01 01:05:13 16° 90° (E) 01:08:24 435.225
AIST 2D 22 Feb 01:05:58 01:07:07 11° 297° (WNW) 01:08:15 435.315
SO-50 22 Feb 01:16:48 01:20:04 19° 324° (NW) 01:23:18 436.795
BUGSAT 1 22 Feb 01:17:42 01:21:51 58° 287° (WNW) 01:26:01 437.445
PCSat 22 Feb 01:24:34 01:29:43 41° 50° (NE) 01:34:50 145.827
DUCHIFAT 1 22 Feb 01:41:54 01:44:08 14° 299° (WNW) 01:46:21 145.980
EO-79 22 Feb 01:49:22 01:50:14 11° 301° (WNW) 01:51:07 145.935-145.965
MOZHAYETS 4 22 Feb 01:52:00 01:55:29 21° 64° (ENE) 01:58:57
AO-7 22 Feb 02:00:09 02:01:24 10° 84° (E) 02:02:39 .
RS-15 22 Feb 02:20:24 02:32:47 67° 48° (NE) 02:44:39 29.354- 29.394
ITUPSAT 1 22 Feb 02:24:07 02:28:55 73° 257° (WSW) 02:33:45 437.325
Oscar 19 22 Feb 02:26:01 02:31:00 53° 289° (WNW) 02:35:57 437.125/150
BEESAT 22 Feb 02:33:26 02:38:08 58° 259° (W) 02:42:53 436.000
Gurwin Techsat 1B 22 Feb 02:40:22 02:45:42 71° 287° (WNW) 02:50:59 435.225
CUBESAT XI-V 22 Feb 02:43:03 02:44:53 12° 59° (ENE) 02:46:43 437.345
KKS-1 22 Feb 02:50:28 02:53:53 22° 64° (ENE) 02:57:19 437.445
ITAMSAT 1 22 Feb 02:51:34 02:56:08 29° 95° (E) 03:00:39 435.822/435.867
PCSat 22 Feb 03:08:11 03:13:00 33° 249° (WSW) 03:17:48 145.827
MOZHAYETS 4 22 Feb 03:27:52 03:32:19 46° 261° (W) 03:36:49
STARS 22 Feb 03:34:39 03:38:23 28° 67° (ENE) 03:42:08 437.465
M-CUBED/EXP-1 PRIME 22 Feb 03:42:46 03:45:36 26° 64° (ENE) 03:48:23 437.505
AO-7 22 Feb 03:47:40 03:55:54 60° 104° (ESE) 04:04:03 .
CUBESAT XI-V 22 Feb 04:16:53 04:21:34 87° 257° (WSW) 04:26:16 437.345
Gurwin Techsat 1B 22 Feb 04:23:05 04:24:41 11° 306° (NW) 04:26:18 435.225
KKS-1 22 Feb 04:26:05 04:30:13 39° 262° (W) 04:34:23 437.445
ITAMSAT 1 22 Feb 04:30:49 04:35:39 38° 293° (WNW) 04:40:27 435.822/435.867
RS-15 22 Feb 04:33:38 04:44:41 42° 253° (WSW) 04:55:20 29.354- 29.394
STARS 22 Feb 05:10:52 05:14:40 29° 264° (W) 05:18:31 437.465
CUTE-I 22 Feb 05:14:08 05:16:17 12° 87° (E) 05:18:25 437.470
AO-85 22 Feb 05:17:12 05:21:42 60° 121° (ESE) 05:25:53 145.980
M-CUBED/EXP-1 PRIME 22 Feb 05:17:51 05:20:09 17° 260° (W) 05:22:25 437.505
XW-2B 22 Feb 05:18:48 05:19:17 10° 89° (E) 05:19:46 145.730 - 145.750
XW-2C 22 Feb 05:26:01 05:27:52 13° 90° (E) 05:29:43 145.795 - 145.815
LilacSat-2 22 Feb 05:38:09 05:40:56 19° 93° (E) 05:43:42 437.200
AO-7 22 Feb 05:40:58 05:48:17 36° 304° (WNW) 05:55:33 .
NUDT-PHONESAT 22 Feb 05:50:14 05:53:05 20° 93° (E) 05:55:54 437.300
DOVE 4 22 Feb 05:58:17 06:02:35 38° 98° (E) 06:07:06 437.250
HO-68 22 Feb 06:22:06 06:25:34 14° 86° (E) 06:29:01 435.675
SO-50 22 Feb 06:24:30 06:27:50 20° 38° (NE) 06:31:09 436.795
STRAND 1 22 Feb 06:28:33 06:33:36 63° 72° (ENE) 06:38:43 437.568
XW-2F 22 Feb 06:42:42 06:46:32 79° 286° (WNW) 06:50:19 145.980 - 146.000
KAITUO 1B 22 Feb 06:44:00 06:47:49 90° 233° (SW) 06:51:34 145.475/437.950
XW-2D 22 Feb 06:45:07 06:48:57 70° 285° (WNW) 06:52:44 145.860 - 145.880
XW-2B 22 Feb 06:50:05 06:53:54 62° 285° (WNW) 06:57:40 145.730 - 145.750
CUTE-I 22 Feb 06:51:38 06:57:03 90° 315° (NW) 07:02:27 437.470
XW-2C 22 Feb 06:58:38 07:02:22 48° 287° (WNW) 07:06:03 145.795 - 145.815
BEESAT 3 22 Feb 06:58:58 07:02:35 37° 117° (ESE) 07:06:15 437.485
AO-85 22 Feb 06:59:07 07:02:24 20° 319° (NW) 07:05:34 145.980
LilacSat-2 22 Feb 07:11:49 07:15:19 33° 290° (WNW) 07:18:47 437.200
NUDT-PHONESAT 22 Feb 07:23:44 07:27:04 30° 290° (WNW) 07:30:22 437.300
SEEDS 22 Feb 07:28:31 07:31:58 25° 94° (E) 07:35:24 437.485
BEESAT 2 22 Feb 07:29:22 07:32:55 33° 117° (ESE) 07:36:32 435.950
AAUSAT CUBESAT 2 22 Feb 07:29:48 07:31:35 12° 89° (E) 07:33:23 437.432
DOVE 4 22 Feb 07:36:22 07:40:07 25° 293° (WNW) 07:44:02 437.250
CUBEBUG 2 22 Feb 07:41:02 07:45:02 26° 94° (E) 07:48:59 437.445
XW-2A 22 Feb 07:59:05 08:02:30 54° 286° (WNW) 08:05:52 145.665 - 145.685
CUTE 1.7 + AOD 2 22 Feb 07:59:29 08:03:45 82° 100° (E) 08:07:57 437.475
SO-50 22 Feb 08:04:17 08:08:47 71° 238° (WSW) 08:13:13 436.795
HO-68 22 Feb 08:07:13 08:14:25 78° 106° (ESE) 08:21:34 435.675
STRAND 1 22 Feb 08:09:52 08:13:13 17° 269° (W) 08:16:35 437.568
AO-73 22 Feb 08:10:13 08:13:19 18° 91° (E) 08:16:21 145.935
Oscar 11 22 Feb 08:21:23 08:24:29 19° 92° (E) 08:27:33 .
UWE-3 22 Feb 08:25:38 08:30:10 45° 98° (E) 08:34:36 435.000/436.395/437.385
CUTE-I 22 Feb 08:33:29 08:36:20 15° 303° (WNW) 08:39:11 437.470
BEESAT 3 22 Feb 08:37:01 08:40:18 25° 317° (NW) 08:43:37 437.485
PRISM 22 Feb 08:40:51 08:44:53 65° 74° (ENE) 08:48:56 437.425
FO-29 22 Feb 08:52:11 08:58:11 30° 59° (ENE) 09:04:35 435.910
ZACube-1 22 Feb 08:54:43 08:59:14 54° 100° (E) 09:03:40 437.345
O/OREOS (USA 219) 22 Feb 08:57:46 09:02:19 61° 64° (ENE) 09:06:51 437.305
AAUSAT CUBESAT 2 22 Feb 09:03:23 09:07:26 58° 287° (WNW) 09:11:27 437.432
SEEDS 22 Feb 09:04:00 09:07:40 30° 291° (WNW) 09:11:18 437.485
ISS 22 Feb 09:05:39 09:08:36 30° 139° (SE) 09:11:33 437.550
BEESAT 2 22 Feb 09:07:17 09:10:43 27° 315° (NW) 09:14:13 435.950
CUBEBUG 2 22 Feb 09:17:20 09:21:43 37° 291° (WNW) 09:26:03 437.445
UNISAT 6 22 Feb 09:22:31 09:26:58 71° 74° (ENE) 09:31:33 437.425
TIGRISAT 22 Feb 09:23:56 09:28:21 68° 74° (ENE) 09:32:56 435.000
DELFI C3 22 Feb 09:32:07 09:35:42 33° 97° (E) 09:39:15 145.870
CUTE 1.7 + AOD 2 22 Feb 09:37:51 09:38:55 11° 300° (WNW) 09:40:00 437.475
Tancredo 1 22 Feb 09:39:10 09:42:24 64° 145° (SE) 09:45:38 437.200
AO-73 22 Feb 09:45:23 09:49:49 50° 288° (WNW) 09:54:10 145.935
POLYITAN 1 22 Feb 09:47:50 09:49:50 13° 61° (ENE) 09:51:51 437.675
QB50P2 22 Feb 09:50:12 09:52:36 15° 62° (ENE) 09:55:00 145.880/145.840
NANOSAT C BR1 22 Feb 09:50:44 09:52:39 13° 61° (ENE) 09:54:34 145.865
HO-68 22 Feb 09:55:59 10:01:25 24° 305° (NW) 10:06:49 435.675
Oscar 11 22 Feb 09:56:42 10:00:48 42° 289° (WNW) 10:04:52 .
UWE-3 22 Feb 10:02:45 10:06:18 22° 296° (WNW) 10:09:49 435.000/436.395/437.385
AIST 2D 22 Feb 10:07:05 10:10:03 25° 69° (ENE) 10:13:02 435.315
YUBILEINY 22 Feb 10:11:02 10:19:11 44° 87° (E) 10:27:20 435.215
PRISM 22 Feb 10:19:19 10:20:36 11° 270° (W) 10:21:52 437.425
ZACube-1 22 Feb 10:32:00 10:35:05 18° 297° (WNW) 10:38:07 437.345
FO-29 22 Feb 10:35:37 10:42:33 66° 259° (W) 10:50:14 435.910
BUGSAT 1 22 Feb 10:36:09 10:37:48 12° 60° (ENE) 10:39:28 437.445
O/OREOS (USA 219) 22 Feb 10:38:37 10:41:12 15° 261° (W) 10:43:46 437.305
ISS 22 Feb 10:41:48 10:44:59 45° 337° (NNW) 10:48:11 437.550
DUCHIFAT 1 22 Feb 10:57:43 11:01:50 56° 73° (ENE) 11:05:58 145.980
UNISAT 6 22 Feb 11:02:19 11:04:13 12° 272° (W) 11:06:08 437.425
TIGRISAT 22 Feb 11:03:29 11:05:33 13° 272° (W) 11:07:39 435.000
EO-79 22 Feb 11:04:24 11:08:37 80° 77° (ENE) 11:12:53 145.935-145.965
DELFI C3 22 Feb 11:07:22 11:10:18 20° 294° (WNW) 11:13:13 145.870
Tancredo 1 22 Feb 11:15:57 11:18:53 30° 344° (NNW) 11:21:49 437.200
POLYITAN 1 22 Feb 11:20:52 11:25:04 68° 258° (WSW) 11:29:20 437.675
NANOSAT C BR1 22 Feb 11:23:37 11:27:48 69° 259° (WSW) 11:32:03 145.865
ESTCUBE 1 22 Feb 11:23:38 11:27:53 40° 98° (E) 11:32:05 437.505/2401.250
QB50P2 22 Feb 11:23:45 11:27:55 58° 259° (W) 11:32:08 145.880/145.840
AIST 2D 22 Feb 11:40:30 11:43:15 21° 266° (W) 11:46:02 435.315
50 SAT 22 Feb 12:00:17 12:02:54 20° 94° (E) 12:05:29 437.505
VELOX 1 22 Feb 12:03:40 12:07:44 35° 97° (E) 12:11:48 145.980
Oscar 19 22 Feb 12:05:42 12:10:22 36° 67° (ENE) 12:15:02 437.125/150
DX 1 22 Feb 12:07:09 12:10:05 18° 92° (E) 12:13:01 434.975-435.025
YUBILEINY 22 Feb 12:07:37 12:15:57 45° 288° (WNW) 12:24:19 435.215
AO-85 22 Feb 12:08:08 12:09:50 12° 34° (NE) 12:11:32 145.980
BUGSAT 1 22 Feb 12:08:35 12:12:36 68° 259° (WSW) 12:16:42 437.445
ISS 22 Feb 12:19:18 12:22:00 23° 356° (N) 12:24:42 437.550
Gurwin Techsat 1B 22 Feb 12:24:11 12:28:47 31° 65° (ENE) 12:33:23 435.225
UKube-1 22 Feb 12:25:49 12:28:59 20° 93° (E) 12:32:09 .
FO-29 22 Feb 12:26:36 12:29:09 12° 280° (W) 12:31:45 435.910
DUCHIFAT 1 22 Feb 12:35:43 12:37:52 14° 270° (W) 12:40:02 145.980
SPROUT 22 Feb 12:36:36 12:40:54 67° 101° (E) 12:45:11 437.525
Tancredo 1 22 Feb 12:53:12 12:55:50 22° 4° (N) 12:58:28 437.200
AO-7 22 Feb 12:58:31 13:04:44 24° 50° (NE) 13:10:58 .
ESTCUBE 1 22 Feb 13:00:59 13:04:26 22° 295° (WNW) 13:07:52 437.505/2401.250
50 SAT 22 Feb 13:33:06 13:36:02 25° 291° (WNW) 13:38:56 437.505
VELOX 1 22 Feb 13:40:28 13:44:01 24° 294° (WNW) 13:47:33 145.980
DX 1 22 Feb 13:42:20 13:46:31 46° 289° (WNW) 13:50:41 434.975-435.025
Oscar 19 22 Feb 13:45:10 13:49:42 31° 264° (W) 13:54:15 437.125/150
AO-85 22 Feb 13:46:59 13:50:54 79° 55° (NE) 13:54:51 145.980
ISS 22 Feb 13:56:07 13:59:08 32° 17° (NNE) 14:02:07 437.550
UKube-1 22 Feb 14:01:08 14:05:10 40° 290° (WNW) 14:09:13 .
Gurwin Techsat 1B 22 Feb 14:03:40 14:08:35 38° 263° (W) 14:13:33 435.225
ITAMSAT 1 22 Feb 14:10:55 14:15:57 53° 70° (ENE) 14:21:03 435.822/435.867
SPROUT 22 Feb 14:14:08 14:16:17 14° 299° (WNW) 14:18:25 437.525
ITUPSAT 1 22 Feb 14:23:23 14:27:21 25° 94° (E) 14:31:19 437.325
Tancredo 1 22 Feb 14:29:31 14:32:40 47° 24° (NNE) 14:35:47 437.200
BEESAT 22 Feb 14:31:59 14:36:14 31° 96° (E) 14:40:28 436.000
AO-7 22 Feb 14:48:05 14:56:28 89° 75° (ENE) 15:04:53 .
BEESAT 3 22 Feb 15:14:02 15:17:50 40° 49° (NE) 15:21:38 437.485
MOZHAYETS 4 22 Feb 15:21:06 15:25:22 36° 97° (E) 15:29:35
ISS 22 Feb 15:32:30 15:35:45 57° 215° (SW) 15:38:58 437.550
BEESAT 2 22 Feb 15:45:13 15:49:00 36° 48° (NE) 15:52:46 435.950
ITAMSAT 1 22 Feb 15:51:52 15:55:44 21° 268° (W) 15:59:38 435.822/435.867
ITUPSAT 1 22 Feb 16:00:50 16:05:17 38° 292° (WNW) 16:09:42 437.325
Tancredo 1 22 Feb 16:06:03 16:08:50 27° 222° (SW) 16:11:36 437.200
PCSat 22 Feb 16:08:43 16:13:02 25° 108° (ESE) 16:17:23 145.827
BEESAT 22 Feb 16:09:45 16:13:59 31° 293° (WNW) 16:18:10 436.000
CUBESAT XI-V 22 Feb 16:12:29 16:15:55 20° 92° (E) 16:19:20 437.345
KKS-1 22 Feb 16:15:02 16:19:06 33° 97° (E) 16:23:08 437.445
LilacSat-2 22 Feb 16:22:36 16:24:30 13° 63° (ENE) 16:26:25 437.200
NUDT-PHONESAT 22 Feb 16:32:26 16:34:13 13° 63° (ENE) 16:36:01 437.300
CUTE-I 22 Feb 16:36:33 16:40:51 26° 63° (ENE) 16:45:11 437.470
AO-7 22 Feb 16:44:25 16:50:15 20° 270° (W) 16:56:06 .
RS-15 22 Feb 16:46:45 16:56:48 34° 104° (ESE) 17:07:07 29.354- 29.394
BEESAT 3 22 Feb 16:52:08 16:55:14 22° 247° (WSW) 16:58:19 437.485
M-CUBED/EXP-1 PRIME 22 Feb 16:53:22 16:55:49 17° 100° (E) 16:58:22 437.505
HO-68 22 Feb 16:53:48 16:57:40 16° 49° (NE) 17:01:30 435.675
STARS 22 Feb 16:57:45 17:01:58 42° 99° (E) 17:06:10 437.465
MOZHAYETS 4 22 Feb 16:58:34 17:02:22 26° 294° (WNW) 17:06:08
DOVE 4 22 Feb 17:05:50 17:09:43 41° 71° (ENE) 17:13:39 437.250
BEESAT 2 22 Feb 17:23:18 17:26:38 24° 246° (WSW) 17:29:54 435.950
XW-2F 22 Feb 17:24:46 17:28:33 60° 74° (ENE) 17:32:22 145.980 - 146.000
KAITUO 1B 22 Feb 17:25:18 17:28:59 51° 74° (ENE) 17:32:43 145.475/437.950
XW-2D 22 Feb 17:27:28 17:31:17 69° 75° (ENE) 17:35:08 145.860 - 145.880
XW-2B 22 Feb 17:32:25 17:36:15 77° 75° (ENE) 17:40:08 145.730 - 145.750
XW-2C 22 Feb 17:40:54 17:44:45 83° 257° (WSW) 17:48:39 145.795 - 145.815
CUBESAT XI-V 22 Feb 17:49:08 17:53:30 43° 289° (WNW) 17:57:50 437.345
PCSat 22 Feb 17:50:48 17:56:05 53° 307° (NW) 18:01:26 145.827
KKS-1 22 Feb 17:51:48 17:55:32 26° 294° (WNW) 17:59:14 437.445
LilacSat-2 22 Feb 17:54:32 17:58:20 54° 260° (W) 18:02:11 437.200
NUDT-PHONESAT 22 Feb 18:04:03 18:07:43 52° 261° (W) 18:11:26 437.300
CUTE-I 22 Feb 18:15:29 18:20:37 48° 261° (W) 18:25:48 437.470
SEEDS 22 Feb 18:21:50 18:25:08 22° 66° (ENE) 18:28:25 437.485
AAUSAT CUBESAT 2 22 Feb 18:22:19 18:23:46 12° 61° (ENE) 18:25:13 437.432
M-CUBED/EXP-1 PRIME 22 Feb 18:26:58 18:30:23 39° 294° (WNW) 18:34:04 437.505
XW-2A 22 Feb 18:31:44 18:35:04 59° 75° (ENE) 18:38:27 145.665 - 145.685
STARS 22 Feb 18:34:43 18:38:02 21° 296° (WNW) 18:41:21 437.465
HO-68 22 Feb 18:37:00 18:44:06 68° 69° (ENE) 18:51:14 435.675
STRAND 1 22 Feb 18:38:19 18:41:55 19° 91° (E) 18:45:28 437.568
CUBEBUG 2 22 Feb 18:40:48 18:44:24 25° 66° (ENE) 18:48:07 437.445
DOVE 4 22 Feb 18:44:53 18:47:39 17° 268° (W) 18:50:27 437.250
CUTE 1.7 + AOD 2 22 Feb 18:53:11 18:57:27 70° 75° (ENE) 19:01:44 437.475
RS-15 22 Feb 18:56:07 19:08:09 78° 307° (NW) 19:20:38 29.354- 29.394
KAITUO 1B 22 Feb 19:01:40 19:03:19 12° 270° (W) 19:04:58 145.475/437.950
XW-2F 22 Feb 19:02:07 19:03:05 11° 271° (W) 19:04:03 145.980 - 146.000
AO-73 22 Feb 19:07:26 19:10:23 18° 63° (ENE) 19:13:23 145.935
Oscar 11 22 Feb 19:17:53 19:20:57 19° 64° (ENE) 19:24:02 .
UWE-3 22 Feb 19:23:53 19:28:04 43° 71° (ENE) 19:32:24 435.000/436.395/437.385
PCSat 22 Feb 19:38:15 19:40:47 13° 329° (NNW) 19:43:19 145.827
ZACube-1 22 Feb 19:51:37 19:55:54 50° 72° (ENE) 20:00:19 437.345
AAUSAT CUBESAT 2 22 Feb 19:54:29 19:58:39 75° 259° (WSW) 20:02:49 437.432
SEEDS 22 Feb 19:56:43 20:00:37 35° 263° (W) 20:04:33 437.485
STRAND 1 22 Feb 20:16:23 20:21:28 58° 289° (WNW) 20:26:30 437.568
CUBEBUG 2 22 Feb 20:16:50 20:20:51 35° 264° (W) 20:25:02 437.445
YUBILEINY 22 Feb 20:19:11 20:25:55 24° 62° (ENE) 20:32:34 435.215
DELFI C3 22 Feb 20:19:19 20:22:34 25° 68° (ENE) 20:25:50 145.870
HO-68 22 Feb 20:26:43 20:32:22 25° 268° (W) 20:38:04 435.675
CUTE 1.7 + AOD 2 22 Feb 20:32:22 20:33:46 11° 272° (W) 20:35:09 437.475
AO-73 22 Feb 20:41:52 20:46:11 53° 261° (W) 20:50:38 145.935
Oscar 11 22 Feb 20:52:35 20:56:46 45° 261° (W) 21:00:58 .
UWE-3 22 Feb 21:01:28 21:04:44 20° 269° (W) 21:08:05 435.000/436.395/437.385
RS-15 22 Feb 21:12:07 21:23:00 35° 336° (NNW) 21:34:04 29.354- 29.394
UNISAT 6 22 Feb 21:13:59 21:16:30 14° 89° (E) 21:19:01 437.425
TIGRISAT 22 Feb 21:15:19 21:17:42 14° 89° (E) 21:20:03 435.000
ZACube-1 22 Feb 21:29:34 21:32:30 17° 270° (W) 21:35:28 437.345
